Regional Weather Roundup
Issued by NWS

Home | Current Version | Previous Version | Text Only | Print | Product List | Glossary Off
Versions: 1 2 3 4 5 6 7 8 9 10 11 12 13 14 15 16 17 18 19 20 21 22 23 24 25 26 27 28 29 30 31 32 33 34 35 36 37 38 39 40 41 42 43 44 45 46 47 48 49 50

000
ASUS45 KCYS 291810
RWRWY

WYOMING REGIONAL WEATHER ROUNDUP
NATIONAL WEATHER SERVICE CHEYENNE WY
1200 PM MDT FRI JUL 29 2016

NOTE:  "FAIR" INDICATES FEW OR NO CLOUDS BELOW 12,000 FEET
WITH NO SIGNIFICANT WEATHER AND/OR OBSTRUCTIONS TO VISIBILITY.

WYZ001-291900-
YELLOWSTONE NATIONAL PARK

CITY           SKY/WX    TMP DP  RH WIND       PRES   REMARKS
LK YELLOWSTONE   N/A     65  47  52 VRB3      30.33F
6HR MIN TEMP:  41; 6HR MAX TEMP:  68;

W YELLOWSTONE  NOT AVBL

$$
WYZ002>013-054>058-071-098>099-291900-
NORTHERN WYOMING

CITY           SKY/WX    TMP DP  RH WIND       PRES   REMARKS
JACKSON        SUNNY     73  45  35 S6        30.22F
CODY           FAIR      79  50  36 N9        30.13F
GREYBULL       FAIR      83  45  26 VRB3      30.06F
6HR MIN TEMP:  58; 6HR MAX TEMP:  83;

WORLAND        FAIR      84  48  28 VRB5      30.06F
6HR MIN TEMP:  55; 6HR MAX TEMP:  84;

SHERIDAN       FAIR      82  49  31 VRB3      30.09F
6HR MIN TEMP:  51; 6HR MAX TEMP:  83;

BUFFALO        FAIR      79  45  29 N3        30.15F
6HR MIN TEMP:  57; 6HR MAX TEMP:  81;

GILLETTE       FAIR      78  53  41 CALM      30.11S
6HR MIN TEMP:  55; 6HR MAX TEMP:  79;

HULETT         FAIR      77  52  41 SW3       30.13F
NEWCASTLE      FAIR      75  52  43 E5        30.13F

$$
WYZ014>020-022>026-101>103-291900-
CENTRAL WYOMING

CITY           SKY/WX    TMP DP  RH WIND       PRES   REMARKS
BIG PINEY      FAIR      77  43  29 VRB7      30.27F
6HR MIN TEMP:  46; 6HR MAX TEMP:  77;

PINEDALE       FAIR      73  37  27 CALM      30.29F
DUBOIS         FAIR      79  34  19 NW15G22   30.24F
LANDER         FAIR      78  50  37 SE6       30.16F
6HR MIN TEMP:  54; 6HR MAX TEMP:  78;

RIVERTON       FAIR      79  51  37 SE9       30.15F
6HR MIN TEMP:  55; 6HR MAX TEMP:  79;

CASPER         FAIR      82  44  26 SW7       30.14F
6HR MIN TEMP:  50; 6HR MAX TEMP:  83;

DOUGLAS          N/A    N/A N/A N/A MISG      30.14F

$$
WYZ021-027>030-104>119-291900-
SOUTHERN WYOMING

CITY           SKY/WX    TMP DP  RH WIND       PRES   REMARKS
EVANSTON       FAIR      85  31  14 W13G28    30.28F
6HR MIN TEMP:  58; 6HR MAX TEMP:  85;

KEMMERER         N/A     81  28  15 W10G22    30.28F
FORT BRIDGER   FAIR      87  29  12 W17G24    30.29F
ROCK SPRINGS   FAIR      81  41  24 W6        30.24F
6HR MIN TEMP:  56; 6HR MAX TEMP:  82;

DIXON          FAIR      80  40  23 SW5       30.26F
RAWLINS        FAIR      80  46  30 MISG      30.25F
6HR MIN TEMP:  51; 6HR MAX TEMP:  80;

SARATOGA       FAIR      79  36  21 N7        30.27F
LARAMIE        FAIR      75  41  29 VRB5      30.28F
6HR MIN TEMP:  50; 6HR MAX TEMP:  76;

CHEYENNE       FAIR      76  56  49 S8        30.23F
6HR MIN TEMP:  57; 6HR MAX TEMP:  77;

TORRINGTON     FAIR      81  56  42 SE9       30.11F
6HR MIN TEMP:  57; 6HR MAX TEMP:  82;

PINE BLUFFS    FAIR      77  54  44 S5        30.21S

$$



USA.gov is the U.S. government's official web portal to all federal, state and local government web resources and services.